Time,TemperatureF,DewpointF,PressureIn,WindDirection,WindDirectionDegrees,WindSpeedMPH,WindSpeedGustMPH,Humidity,HourlyPrecipIn,Conditions,Clouds,dailyrainin,SolarRadiationWatts/m^2,SoftwareType,DateUTC
2013-11-02 00:04:00,37.0,35.0,-100.00,NNE,14,2.0,7.0,92,0.00,,,0.31,0.000000,,2013-11-02 05:04:00,
2013-11-02 00:42:00,37.0,34.0,-100.00,NNE,17,3.0,6.0,90,0.00,,,0.24,0.000000,,2013-11-02 05:42:00,
2013-11-02 00:52:00,37.0,34.0,-100.00,NNE,17,3.0,6.0,90,0.00,,,0.24,0.000000,,2013-11-02 05:52:00,
2013-11-02 01:02:00,37.0,34.0,-100.00,NNE,17,3.0,6.0,90,0.00,,,0.24,0.000000,,2013-11-02 06:02:00,
2013-11-02 01:12:00,37.0,34.0,-100.00,NNE,17,3.0,6.0,90,0.00,,,0.24,0.000000,,2013-11-02 06:12:00,
2013-11-02 01:43:00,35.0,33.0,-100.00,NNW,336,2.0,7.0,91,0.00,,,0.11,0.000000,,2013-11-02 06:43:00,
2013-11-02 01:52:00,35.0,33.0,-100.00,NNW,336,2.0,7.0,91,0.00,,,0.11,0.000000,,2013-11-02 06:52:00,
2013-11-02 02:03:00,35.0,33.0,-100.00,NNW,336,2.0,7.0,91,0.00,,,0.11,0.000000,,2013-11-02 07:03:00,
2013-11-02 02:12:00,35.0,33.0,-100.00,NNW,336,2.0,7.0,91,0.00,,,0.11,0.000000,,2013-11-02 07:12:00,
2013-11-02 02:42:00,35.0,33.0,-100.00,NNW,343,2.0,5.0,92,0.00,,,0.02,0.000000,,2013-11-02 07:42:00,
2013-11-02 02:52:00,35.0,33.0,-100.00,NNW,343,2.0,5.0,92,0.00,,,0.02,0.000000,,2013-11-02 07:52:00,
2013-11-02 03:02:00,35.0,33.0,-100.00,NNW,343,2.0,5.0,92,0.00,,,0.02,0.000000,,2013-11-02 08:02:00,
2013-11-02 03:12:00,35.0,33.0,-100.00,NNW,343,2.0,5.0,92,0.00,,,0.02,0.000000,,2013-11-02 08:12:00,
2013-11-02 03:42:00,32.0,31.0,-100.00,NW,308,1.0,4.0,95,0.00,,,0.01,0.000000,,2013-11-02 08:42:00,
2013-11-02 03:52:00,32.0,31.0,-100.00,NW,308,1.0,4.0,95,0.00,,,0.01,0.000000,,2013-11-02 08:52:00,
2013-11-02 04:02:00,32.0,31.0,-100.00,NW,308,1.0,4.0,95,0.00,,,0.01,0.000000,,2013-11-02 09:02:00,
2013-11-02 04:11:00,32.0,31.0,-100.00,NW,308,1.0,4.0,95,0.00,,,0.01,0.000000,,2013-11-02 09:11:00,
2013-11-02 04:13:00,34.0,32.0,-100.00,NW,325,3.0,6.0,93,0.00,,,0.00,0.000000,,2013-11-02 09:13:00,
2013-11-02 04:43:00,34.0,32.0,-100.00,NW,325,3.0,6.0,93,0.00,,,0.00,0.000000,,2013-11-02 09:43:00,
2013-11-02 04:53:00,34.0,32.0,-100.00,NW,325,3.0,6.0,93,0.00,,,0.00,0.000000,,2013-11-02 09:53:00,
2013-11-02 05:03:00,34.0,32.0,-100.00,NW,325,3.0,6.0,93,0.00,,,0.00,0.000000,,2013-11-02 10:03:00,
2013-11-02 05:42:00,35.0,33.0,-100.00,NNW,338,3.0,7.0,92,0.00,,,0.00,0.000000,,2013-11-02 10:42:00,
2013-11-02 05:53:00,35.0,33.0,-100.00,NNW,338,3.0,7.0,92,0.00,,,0.00,0.000000,,2013-11-02 10:53:00,
2013-11-02 06:02:00,35.0,33.0,-100.00,NNW,338,3.0,7.0,92,0.00,,,0.00,0.000000,,2013-11-02 11:02:00,
2013-11-02 06:12:00,35.0,33.0,-100.00,NNW,338,3.0,7.0,92,0.00,,,0.00,0.000000,,2013-11-02 11:12:00,
2013-11-02 06:42:00,35.0,33.0,-100.00,NW,321,2.0,6.0,92,0.00,,,0.00,0.000000,,2013-11-02 11:42:00,
2013-11-02 06:52:00,35.0,33.0,-100.00,NW,321,2.0,6.0,92,0.00,,,0.00,0.000000,,2013-11-02 11:52:00,
2013-11-02 07:02:00,35.0,33.0,-100.00,NW,321,2.0,6.0,92,0.00,,,0.00,0.000000,,2013-11-02 12:02:00,
2013-11-02 07:12:00,35.0,33.0,-100.00,NW,321,2.0,6.0,92,0.00,,,0.00,0.000000,,2013-11-02 12:12:00,
2013-11-02 07:42:00,35.0,33.0,-100.00,NNW,338,3.0,6.0,93,0.00,,,0.00,0.000000,,2013-11-02 12:42:00,
2013-11-02 07:52:00,35.0,33.0,-100.00,NNW,338,3.0,6.0,93,0.00,,,0.00,0.000000,,2013-11-02 12:52:00,
2013-11-02 08:02:00,35.0,33.0,-100.00,NNW,338,3.0,6.0,93,0.00,,,0.00,0.000000,,2013-11-02 13:02:00,
2013-11-02 08:12:00,35.0,33.0,-100.00,NNW,338,3.0,6.0,93,0.00,,,0.00,0.000000,,2013-11-02 13:12:00,
2013-11-02 08:42:00,35.0,34.0,-100.00,NE,38,2.0,6.0,95,0.01,,,0.01,6.000000,,2013-11-02 13:42:00,
2013-11-02 08:52:00,35.0,34.0,-100.00,NE,38,2.0,6.0,95,0.01,,,0.01,6.000000,,2013-11-02 13:52:00,
2013-11-02 09:02:00,35.0,34.0,-100.00,NE,38,2.0,6.0,95,0.01,,,0.01,6.000000,,2013-11-02 14:02:00,
2013-11-02 09:11:00,35.0,34.0,-100.00,NE,38,2.0,6.0,95,0.01,,,0.01,6.000000,,2013-11-02 14:11:00,
2013-11-02 09:42:00,36.0,34.0,-100.00,NNE,27,3.0,8.0,92,0.00,,,0.01,60.000000,,2013-11-02 14:42:00,
2013-11-02 09:52:00,36.0,34.0,-100.00,NNE,27,3.0,8.0,92,0.00,,,0.01,60.000000,,2013-11-02 14:52:00,
2013-11-02 10:02:00,36.0,34.0,-100.00,NNE,27,3.0,8.0,92,0.00,,,0.01,60.000000,,2013-11-02 15:02:00,
2013-11-02 10:11:00,36.0,34.0,-100.00,NNE,27,3.0,8.0,92,0.00,,,0.01,60.000000,,2013-11-02 15:11:00,
2013-11-02 10:13:00,38.0,33.0,-100.00,NNE,20,5.0,11.0,81,0.00,,,0.01,192.000000,,2013-11-02 15:13:00,
2013-11-02 10:43:00,38.0,33.0,-100.00,NNE,20,5.0,11.0,81,0.00,,,0.01,192.000000,,2013-11-02 15:43:00,
2013-11-02 10:53:00,38.0,33.0,-100.00,NNE,20,5.0,11.0,81,0.00,,,0.01,192.000000,,2013-11-02 15:53:00,
2013-11-02 11:03:00,38.0,33.0,-100.00,NNE,20,5.0,11.0,81,0.00,,,0.01,192.000000,,2013-11-02 16:03:00,
2013-11-02 11:43:00,39.0,29.0,-100.00,NE,34,6.0,13.0,68,0.00,,,0.01,296.000000,,2013-11-02 16:43:00,
2013-11-02 11:54:00,39.0,29.0,-100.00,NE,34,6.0,13.0,68,0.00,,,0.01,296.000000,,2013-11-02 16:54:00,
2013-11-02 12:03:00,39.0,29.0,-100.00,NE,34,6.0,13.0,68,0.00,,,0.01,296.000000,,2013-11-02 17:03:00,
2013-11-02 12:12:00,39.0,29.0,-100.00,NE,34,6.0,13.0,68,0.00,,,0.01,296.000000,,2013-11-02 17:12:00,
2013-11-02 12:43:00,39.0,30.0,-100.00,NE,44,4.0,11.0,70,0.00,,,0.01,238.000000,,2013-11-02 17:43:00,
2013-11-02 12:53:00,39.0,30.0,-100.00,NE,44,4.0,11.0,70,0.00,,,0.01,238.000000,,2013-11-02 17:53:00,
2013-11-02 13:03:00,39.0,30.0,-100.00,NE,44,4.0,11.0,70,0.00,,,0.01,238.000000,,2013-11-02 18:03:00,
2013-11-02 13:12:00,39.0,30.0,-100.00,NE,44,4.0,11.0,70,0.00,,,0.01,238.000000,,2013-11-02 18:12:00,
2013-11-02 13:42:00,39.0,30.0,-100.00,NNE,12,5.0,13.0,69,0.00,,,0.01,231.000000,,2013-11-02 18:42:00,
2013-11-02 13:53:00,39.0,30.0,-100.00,NNE,12,5.0,13.0,69,0.00,,,0.01,231.000000,,2013-11-02 18:53:00,
2013-11-02 14:02:00,39.0,30.0,-100.00,NNE,12,5.0,13.0,69,0.00,,,0.01,231.000000,,2013-11-02 19:02:00,
2013-11-02 14:11:00,39.0,30.0,-100.00,NNE,12,5.0,13.0,69,0.00,,,0.01,231.000000,,2013-11-02 19:11:00,
2013-11-02 14:42:00,39.0,29.0,-100.00,NNE,23,4.0,10.0,67,0.00,,,0.01,176.000000,,2013-11-02 19:42:00,
2013-11-02 14:52:00,39.0,29.0,-100.00,NNE,23,4.0,10.0,67,0.00,,,0.01,176.000000,,2013-11-02 19:52:00,
2013-11-02 15:02:00,39.0,29.0,-100.00,NNE,23,4.0,10.0,67,0.00,,,0.01,176.000000,,2013-11-02 20:02:00,
2013-11-02 15:12:00,39.0,29.0,-100.00,NNE,23,4.0,10.0,67,0.00,,,0.01,176.000000,,2013-11-02 20:12:00,
2013-11-02 15:43:00,38.0,29.0,-100.00,NNE,23,4.0,9.0,69,0.00,,,0.01,137.000000,,2013-11-02 20:43:00,
2013-11-02 15:53:00,38.0,29.0,-100.00,NNE,23,4.0,9.0,69,0.00,,,0.01,137.000000,,2013-11-02 20:53:00,
2013-11-02 16:02:00,38.0,29.0,-100.00,NNE,23,4.0,9.0,69,0.00,,,0.01,137.000000,,2013-11-02 21:02:00,
2013-11-02 16:12:00,38.0,29.0,-100.00,NNE,23,4.0,9.0,69,0.00,,,0.01,137.000000,,2013-11-02 21:12:00,
2013-11-02 16:13:00,38.0,27.0,-100.00,NE,42,4.0,10.0,65,0.00,,,0.01,120.000000,,2013-11-02 21:13:00,
2013-11-02 16:44:00,38.0,27.0,-100.00,NE,42,4.0,10.0,65,0.00,,,0.01,120.000000,,2013-11-02 21:44:00,
2013-11-02 16:54:00,38.0,27.0,-100.00,NE,42,4.0,10.0,65,0.00,,,0.01,120.000000,,2013-11-02 21:54:00,
2013-11-02 17:03:00,38.0,27.0,-100.00,NE,42,4.0,10.0,65,0.00,,,0.01,120.000000,,2013-11-02 22:03:00,
2013-11-02 17:44:00,36.0,29.0,-100.00,NE,47,0.0,8.0,75,0.00,,,0.01,46.000000,,2013-11-02 22:44:00,
2013-11-02 17:54:00,36.0,29.0,-100.00,NE,47,0.0,8.0,75,0.00,,,0.01,46.000000,,2013-11-02 22:54:00,
2013-11-02 18:02:00,36.0,29.0,-100.00,NE,47,0.0,8.0,75,0.00,,,0.01,46.000000,,2013-11-02 23:02:00,
2013-11-02 18:12:00,36.0,29.0,-100.00,NE,47,0.0,8.0,75,0.00,,,0.01,46.000000,,2013-11-02 23:12:00,
2013-11-02 18:42:00,33.0,28.0,-100.00,NE,37,2.0,6.0,81,0.00,,,0.01,7.000000,,2013-11-02 23:42:00,
2013-11-02 18:52:00,33.0,28.0,-100.00,NE,37,2.0,6.0,81,0.00,,,0.01,7.000000,,2013-11-02 23:52:00,
2013-11-02 19:02:00,33.0,28.0,-100.00,NE,37,2.0,6.0,81,0.00,,,0.01,7.000000,,2013-11-03 00:02:00,
2013-11-02 19:11:00,33.0,28.0,-100.00,NE,37,2.0,6.0,81,0.00,,,0.01,7.000000,,2013-11-03 00:11:00,
2013-11-02 19:42:00,29.0,27.0,-100.00,ENE,68,0.0,4.0,91,0.00,,,0.01,0.000000,,2013-11-03 00:42:00,
2013-11-02 19:52:00,29.0,27.0,-100.00,ENE,68,0.0,4.0,91,0.00,,,0.01,0.000000,,2013-11-03 00:52:00,
2013-11-02 20:02:00,29.0,27.0,-100.00,ENE,68,0.0,4.0,91,0.00,,,0.01,0.000000,,2013-11-03 01:02:00,
2013-11-02 20:11:00,29.0,27.0,-100.00,ENE,68,0.0,4.0,91,0.00,,,0.01,0.000000,,2013-11-03 01:11:00,
2013-11-02 20:42:00,28.0,27.0,-100.00,WSW,254,0.0,2.0,94,0.00,,,0.01,0.000000,,2013-11-03 01:42:00,
2013-11-02 20:52:00,28.0,27.0,-100.00,WSW,254,0.0,2.0,94,0.00,,,0.01,0.000000,,2013-11-03 01:52:00,
2013-11-02 21:02:00,28.0,27.0,-100.00,WSW,254,0.0,2.0,94,0.00,,,0.01,0.000000,,2013-11-03 02:02:00,
2013-11-02 21:11:00,28.0,27.0,-100.00,WSW,254,0.0,2.0,94,0.00,,,0.01,0.000000,,2013-11-03 02:11:00,
2013-11-02 21:43:00,27.0,26.0,-100.00,NW,311,0.0,2.0,95,0.00,,,0.01,0.000000,,2013-11-03 02:43:00,
2013-11-02 21:52:00,27.0,26.0,-100.00,NW,311,0.0,2.0,95,0.00,,,0.01,0.000000,,2013-11-03 02:52:00,
2013-11-02 22:02:00,27.0,26.0,-100.00,NW,311,0.0,2.0,95,0.00,,,0.01,0.000000,,2013-11-03 03:02:00,
2013-11-02 22:11:00,27.0,26.0,-100.00,NW,311,0.0,2.0,95,0.00,,,0.01,0.000000,,2013-11-03 03:11:00,
2013-11-02 22:13:00,29.0,28.0,-100.00,SSE,151,1.0,2.0,96,0.00,,,0.01,0.000000,,2013-11-03 03:13:00,
2013-11-02 22:45:00,29.0,28.0,-100.00,SSE,151,1.0,2.0,96,0.00,,,0.01,0.000000,,2013-11-03 03:45:00,
2013-11-02 22:54:00,29.0,28.0,-100.00,SSE,151,1.0,2.0,96,0.00,,,0.01,0.000000,,2013-11-03 03:54:00,
2013-11-02 23:02:00,-999.0,-99.9,-100.00,SSE,151,1.0,2.0,-999,-99.99,,,-99.99,0.000000,,2013-11-03 04:02:00,
2013-11-02 23:13:00,30.0,29.0,-100.00,WNW,296,0.0,3.0,96,0.00,,,0.01,0.000000,,2013-11-03 04:13:00,
2013-11-02 23:44:00,30.0,29.0,-100.00,WNW,296,0.0,3.0,96,0.00,,,0.01,0.000000,,2013-11-03 04:44:00,
2013-11-02 23:52:00,30.0,29.0,-100.00,WNW,296,0.0,3.0,96,0.00,,,0.01,0.000000,,2013-11-03 04:52:00,